Total_Precipitation_Accumulation
0.02 0.06 0.22 0.40 0.71 1.14 1.07 0.60 0.40 0.36 0.37 0.38 0.49 0.49 0.44 0.44 0.61 0.98 0.33 0.07 0.04 0.02 0.03 0.09 0.11 0.11 0.12 0.13 0.17 0.21 0.21 0.20 0.19 0.18 0.17 0.19 0.22 0.20 0.19 0.23 0.27 0.29 0.30 0.29 0.29 0.29 0.29 0.29 0.33
0.02 0.07 0.20 0.46 1.00 1.46 1.12 0.53 0.36 0.39 0.40 0.39 0.43 0.52 0.57 0.39 0.25 0.21 0.13 0.07 0.05 0.02 0.03 0.05 0.10 0.11 0.10 0.12 0.15 0.19 0.22 0.20 0.19 0.19 0.19 0.21 0.24 0.29 0.28 0.28 0.31 0.32 0.31 0.28 0.27 0.26 0.25 0.25 0.31
0.03 0.08 0.20 0.54 0.84 1.03 0.80 0.37 0.32 0.31 0.42 0.46 0.47 0.48 0.52 0.34 0.21 0.13 0.12 0.09 0.06 0.04 0.05 0.09 0.11 0.10 0.09 0.11 0.15 0.18 0.19 0.18 0.18 0.17 0.19 0.22 0.26 0.30 0.33 0.32 0.32 0.33 0.33 0.29 0.26 0.23 0.22 0.23 0.29
0.03 0.08 0.23 0.47 0.46 0.43 0.41 0.29 0.27 0.26 0.35 0.43 0.54 0.55 0.43 0.27 0.24 0.20 0.13 0.12 0.06 0.06 0.06 0.09 0.12 0.10 0.09 0.10 0.12 0.17 0.18 0.17 0.18 0.19 0.21 0.24 0.26 0.28 0.29 0.28 0.30 0.33 0.32 0.30 0.27 0.21 0.22 0.27 0.30
0.03 0.10 0.32 0.42 0.31 0.33 0.36 0.29 0.27 0.24 0.33 0.47 0.49 0.58 0.56 0.36 0.26 0.19 0.14 0.16 0.10 0.07 0.07 0.08 0.11 0.11 0.11 0.11 0.13 0.15 0.16 0.16 0.19 0.21 0.22 0.25 0.28 0.29 0.28 0.27 0.27 0.31 0.33 0.31 0.26 0.23 0.26 0.29 0.33
0.04 0.14 0.30 0.29 0.21 0.20 0.24 0.21 0.24 0.27 0.36 0.57 0.50 0.57 0.73 0.54 0.37 0.28 0.18 0.18 0.16 0.11 0.07 0.09 0.14 0.17 0.18 0.16 0.17 0.18 0.17 0.17 0.20 0.20 0.20 0.24 0.27 0.27 0.28 0.28 0.28 0.31 0.34 0.30 0.24 0.27 0.31 0.33 0.38
0.03 0.11 0.19 0.20 0.15 0.15 0.17 0.20 0.25 0.25 0.40 0.69 0.55 0.69 0.97 0.89 0.52 0.41 0.38 0.30 0.26 0.23 0.20 0.15 0.16 0.19 0.24 0.25 0.23 0.23 0.22 0.21 0.22 0.22 0.22 0.25 0.26 0.26 0.27 0.34 0.35 0.35 0.37 0.34 0.27 0.26 0.25 0.28 0.34
0.02 0.04 0.08 0.13 0.13 0.11 0.11 0.15 0.19 0.33 0.43 0.57 0.48 0.71 1.19 1.05 0.65 0.59 0.66 0.59 0.63 0.57 0.43 0.27 0.25 0.26 0.22 0.22 0.27 0.29 0.25 0.24 0.24 0.23 0.24 0.26 0.28 0.29 0.34 0.36 0.41 0.45 0.45 0.41 0.35 0.29 0.27 0.32 0.38
0.03 0.05 0.08 0.09 0.09 0.09 0.08 0.11 0.16 0.29 0.44 0.59 0.64 0.70 0.92 0.81 0.78 0.84 0.93 0.98 0.99 1.06 0.88 0.53 0.38 0.35 0.33 0.27 0.28 0.37 0.35 0.31 0.33 0.37 0.36 0.45 0.58 0.58 0.67 0.63 0.65 0.65 0.61 0.57 0.54 0.52 0.48 0.46 0.42
0.02 0.06 0.05 0.04 0.04 0.06 0.07 0.12 0.20 0.33 0.59 0.86 0.89 0.89 1.06 0.99 0.81 0.85 0.89 1.03 1.13 1.24 1.12 0.82 0.69 0.51 0.43 0.39 0.49 0.66 0.62 0.62 0.64 0.73 0.71 0.95 1.17 1.10 0.86 0.92 1.10 1.11 1.10 1.01 1.01 1.01 0.84 0.67 0.63
0.01 0.02 0.02 0.02 0.02 0.05 0.07 0.11 0.19 0.38 0.74 1.18 1.44 1.47 1.33 1.19 1.10 1.05 1.00 1.16 1.36 1.38 1.23 1.00 0.95 0.84 0.67 0.74 0.68 0.79 0.93 1.05 0.94 0.92 0.99 1.31 1.24 1.01 0.98 1.07 1.29 1.50 1.45 1.36 1.52 1.60 1.29 1.22 1.46
0.00 0.00 0.00 0.01 0.02 0.03 0.07 0.10 0.19 0.38 0.72 1.00 1.24 1.53 1.65 1.49 1.51 1.46 1.42 1.65 1.82 1.70 1.52 1.31 1.15 1.02 0.96 0.93 0.87 0.88 0.87 1.02 1.03 1.15 1.16 1.34 1.55 1.47 1.45 1.55 1.59 1.72 1.84 2.12 2.06 2.10 1.91 1.81 1.73
0.00 0.00 0.01 0.01 0.02 0.03 0.06 0.15 0.26 0.40 0.54 0.76 0.93 1.09 1.36 1.70 2.01 2.09 2.16 2.56 2.40 2.21 2.06 1.86 1.54 1.46 1.36 1.38 1.36 1.14 1.15 1.24 1.34 1.48 1.46 1.44 1.67 1.71 1.79 1.83 1.87 1.77 1.87 2.06 2.28 2.20 2.27 2.34 2.14
0.00 0.00 0.01 0.02 0.02 0.03 0.08 0.21 0.26 0.43 0.52 0.67 0.89 1.09 1.62 2.20 2.36 2.62 2.97 3.28 3.12 2.88 2.88 2.66 2.31 2.22 2.08 1.86 1.71 1.63 1.50 1.61 1.65 1.70 1.66 1.68 1.94 2.10 2.06 1.91 1.91 1.84 1.88 1.96 2.13 2.24 2.55 2.52 2.43
0.00 0.02 0.03 0.04 0.03 0.05 0.10 0.27 0.35 0.53 0.62 0.75 1.11 1.30 1.75 2.09 2.35 2.49 2.93 3.29 3.25 3.17 3.32 3.30 3.13 3.09 2.91 2.62 2.26 2.02 1.96 1.86 1.97 2.05 1.99 2.02 2.12 2.27 2.21 2.09 1.92 1.96 1.99 2.10 2.13 2.25 2.52 2.51 2.39
0.02 0.05 0.10 0.09 0.08 0.10 0.18 0.54 0.51 0.61 0.82 1.08 1.32 1.47 1.71 1.87 2.24 2.38 2.74 3.22 3.45 3.46 3.64 3.84 3.78 3.75 3.50 3.19 2.85 2.54 2.35 2.27 2.25 2.22 2.19 2.12 2.26 2.31 2.31 2.12 1.91 2.07 2.03 2.11 2.31 2.40 2.54 2.69 2.69
0.04 0.08 0.16 0.19 0.16 0.13 0.29 0.72 0.75 0.83 0.98 1.11 1.23 1.47 1.63 1.64 1.99 2.42 2.73 3.28 3.67 3.80 4.17 4.52 4.56 4.45 4.07 3.61 3.34 3.20 2.96 2.71 2.50 2.47 2.33 2.26 2.31 2.24 2.29 2.08 1.99 2.12 2.25 2.24 2.09 2.46 2.70 2.74 2.77
0.04 0.06 0.11 0.17 0.17 0.18 0.35 0.56 0.70 0.89 1.04 1.16 1.19 1.30 1.35 1.49 1.96 2.50 2.83 3.16 3.78 4.30 4.88 4.88 4.79 5.02 4.79 4.39 4.10 3.80 3.40 3.07 2.76 2.60 2.42 2.22 2.11 2.09 2.31 1.99 1.98 2.18 2.33 2.30 2.34 2.64 2.77 2.64 2.74
0.05 0.09 0.17 0.19 0.17 0.31 0.49 0.66 0.79 0.91 0.97 1.09 1.21 1.19 1.24 1.54 1.97 2.39 2.77 3.15 3.54 4.11 4.65 5.15 5.19 5.06 4.83 4.46 3.97 3.58 3.20 2.99 2.71 2.44 2.24 2.17 2.16 2.26 2.54 2.22 2.30 2.27 2.23 2.22 2.40 2.59 2.51 2.35 2.73
0.08 0.13 0.21 0.26 0.20 0.30 0.49 0.74 0.92 0.93 0.91 0.99 1.15 1.33 1.36 1.61 1.91 2.31 2.76 3.02 3.18 3.50 3.93 4.31 4.53 4.18 3.74 3.52 3.42 3.25 3.21 2.84 2.65 2.55 2.51 2.33 2.35 2.35 2.34 2.38 2.26 2.28 2.30 2.12 2.18 2.42 2.31 1.98 2.34
0.10 0.11 0.12 0.18 0.20 0.32 0.53 0.90 1.03 0.87 0.82 0.91 1.04 1.32 1.52 1.56 1.78 2.07 2.52 2.72 2.79 2.93 3.08 3.23 3.35 3.30 3.26 3.32 3.40 3.43 3.48 3.15 2.99 2.85 2.78 2.51 2.44 2.39 2.39 2.22 2.09 2.13 2.05 1.96 1.93 2.11 2.21 2.01 1.97
0.13 0.08 0.06 0.09 0.22 0.49 0.61 1.09 1.21 0.97 0.92 0.98 1.03 1.14 1.24 1.38 1.43 1.56 1.85 2.23 2.22 2.28 2.53 2.93 3.05 3.09 3.23 3.47 3.48 3.45 3.32 3.19 3.17 3.25 3.22 3.12 2.89 2.64 2.42 2.20 2.01 1.87 1.77 1.80 1.59 1.79 1.95 2.01 1.70
0.07 0.05 0.06 0.11 0.22 0.42 0.51 0.80 1.08 1.10 1.04 0.95 0.95 1.04 1.07 1.13 1.17 1.23 1.35 1.80 1.97 1.91 2.15 2.58 3.03 3.24 3.41 3.62 3.68 3.83 3.71 3.51 3.35 3.36 3.38 3.17 2.97 2.71 2.39 2.22 2.07 1.89 1.74 1.64 1.55 1.70 1.64 1.65 1.53
0.05 0.07 0.15 0.23 0.43 0.79 0.63 0.68 1.10 1.10 0.94 0.84 0.75 0.79 0.88 0.83 0.86 0.95 1.13 1.61 1.98 2.06 2.22 2.41 2.73 3.14 3.40 3.50 3.52 3.52 3.48 3.39 3.18 3.04 2.81 2.53 2.43 2.31 2.11 1.98 1.87 1.72 1.69 1.66 1.57 1.56 1.52 1.52 1.57
0.06 0.16 0.54 0.86 1.13 1.18 0.63 0.65 0.98 0.85 0.80 0.71 0.77 0.78 0.68 0.61 0.66 0.70 0.78 0.95 1.11 1.30 1.49 1.67 1.93 2.30 2.61 2.80 2.87 2.78 2.87 2.83 2.58 2.37 2.22 1.96 1.76 1.60 1.55 1.59 1.58 1.50 1.47 1.41 1.44 1.41 1.38 1.44 1.51
0.07 0.11 0.34 0.56 0.72 0.85 0.77 1.08 1.05 0.72 0.63 0.62 0.66 0.61 0.48 0.44 0.43 0.43 0.47 0.54 0.73 0.93 1.18 1.36 1.51 1.65 1.93 2.10 2.15 2.16 2.19 2.13 1.96 2.01 1.82 1.64 1.48 1.34 1.38 1.44 1.42 1.37 1.36 1.30 1.39 1.28 1.22 1.25 1.28
0.06 0.06 0.10 0.17 0.28 0.57 0.89 1.23 1.12 0.74 0.64 0.60 0.50 0.42 0.34 0.27 0.26 0.27 0.30 0.38 0.50 0.70 0.91 1.06 1.23 1.40 1.63 1.85 1.83 1.78 1.67 1.63 1.67 1.67 1.55 1.46 1.45 1.36 1.39 1.34 1.36 1.36 1.41 1.44 1.46 1.34 1.27 1.37 1.32
0.07 0.08 0.09 0.14 0.30 0.51 0.79 1.14 1.24 0.93 0.83 0.66 0.58 0.57 0.36 0.23 0.19 0.21 0.24 0.34 0.39 0.47 0.68 0.91 1.08 1.28 1.40 1.55 1.56 1.47 1.46 1.40 1.42 1.40 1.36 1.33 1.39 1.46 1.49 1.42 1.43 1.44 1.42 1.44 1.43 1.26 1.25 1.39 1.44
0.10 0.10 0.10 0.11 0.15 0.35 0.69 0.94 0.88 0.82 0.70 0.59 0.58 0.55 0.40 0.28 0.19 0.19 0.25 0.32 0.42 0.54 0.71 0.94 1.09 1.19 1.28 1.28 1.30 1.33 1.28 1.28 1.31 1.24 1.20 1.24 1.36 1.43 1.44 1.42 1.42 1.39 1.36 1.38 1.39 1.26 1.35 1.44 1.46
0.11 0.11 0.12 0.16 0.15 0.17 0.38 0.68 0.60 0.54 0.53 0.53 0.48 0.48 0.43 0.34 0.31 0.31 0.36 0.41 0.48 0.59 0.71 0.89 1.06 1.15 1.24 1.32 1.43 1.52 1.55 1.55 1.47 1.32 1.24 1.30 1.38 1.45 1.48 1.49 1.48 1.36 1.37 1.50 1.50 1.43 1.51 1.55 1.52